| time (UTC) | temp F | wind direction | speed MPH | gust MPH | rain 1hr in | rain 24hr in | rain mn in | humidity % | barometer mb |
| 20260507023010 | 32 | 355 | 2.0 | 5.0 | 0.00 | 0.00 | 0.00 | 69 | 1014.7 |
| 20260507021509 | 32 | 355 | 2.0 | 5.0 | 0.00 | 0.00 | 0.00 | 67 | 1014.6 |
| 20260507020024 | 32 | 355 | 3.0 | 6.0 | 0.00 | 0.00 | 0.00 | 67 | 1014.5 |
| 20260507014509 | 32 | 355 | 4.0 | 6.0 | 0.00 | 0.00 | 0.00 | 67 | 1014.4 |
| 20260507013017 | 33 | 355 | 4.0 | 6.0 | 0.00 | 0.00 | 0.00 | 67 | 1014.2 |
| 20260507011510 | 33 | 351 | 4.0 | 6.0 | 0.00 | 0.00 | 0.00 | 67 | 1014.2 |
| 20260507010009 | 34 | 350 | 3.0 | 8.0 | 0.00 | 0.00 | 0.00 | 64 | 1014.1 |
| 20260507004510 | 34 | 355 | 3.0 | 8.0 | 0.00 | 0.00 | 0.00 | 65 | 1014.0 |
| 20260507003010 | 34 | 355 | 3.0 | 6.0 | 0.00 | 0.00 | 0.00 | 64 | 1014.0 |
| 20260507001509 | 35 | 355 | 5.0 | 8.0 | 0.00 | 0.00 | 0.00 | 64 | 1013.9 |
| 20260507000009 | 35 | 355 | 3.0 | 6.0 | 0.00 | 0.00 | 0.00 | 63 | 1013.8 |
| 20260506234518 | 36 | 355 | 2.0 | 5.0 | 0.00 | 0.00 | 0.00 | 61 | 1013.7 |
| 20260506233011 | 36 | 355 | 4.0 | 6.0 | 0.00 | 0.00 | 0.00 | 61 | 1013.7 |
| 20260506231509 | 37 | 355 | 2.0 | 6.0 | 0.00 | 0.00 | 0.00 | 58 | 1013.7 |
| 20260506230010 | 37 | 360 | 2.0 | 4.0 | 0.00 | 0.00 | 0.00 | 58 | 1013.6 |
| 20260506224510 | 39 | 5 | 1.0 | 6.0 | 0.00 | 0.00 | 0.00 | 55 | 1013.5 |
| 20260506223010 | 39 | 5 | 2.0 | 8.0 | 0.00 | 0.00 | 0.00 | 51 | 1013.5 |
| 20260506221509 | 39 | 5 | 2.0 | 6.0 | 0.00 | 0.00 | 0.00 | 53 | 1013.4 |
| 20260506220020 | 41 | 9 | 2.0 | 8.0 | 0.00 | 0.00 | 0.00 | 47 | 1013.3 |
| 20260506214510 | 42 | 11 | 5.0 | 8.0 | 0.00 | 0.00 | 0.00 | 43 | 1013.1 |
| 20260506213009 | 43 | 21 | 6.0 | 10.0 | 0.00 | 0.00 | 0.00 | 42 | 1013.1 |
| 20260506211514 | 43 | 14 | 6.0 | 11.0 | 0.00 | 0.00 | 0.00 | 41 | 1012.9 |
| 20260506210012 | 43 | 16 | 5.0 | 9.0 | 0.00 | 0.00 | 0.00 | 40 | 1012.8 |
| 20260506204509 | 44 | 351 | 5.0 | 9.0 | 0.00 | 0.00 | 0.00 | 40 | 1012.7 |
| 20260506201510 | 45 | 345 | 5.0 | 8.0 | 0.00 | 0.00 | 0.00 | 38 | 1012.5 |
| 20260506200020 | 46 | 344 | 2.0 | 9.0 | 0.00 | 0.00 | 0.00 | 36 | 1012.3 |
| 20260506194509 | 46 | 336 | 3.0 | 10.0 | 0.00 | 0.00 | 0.00 | 35 | 1012.3 |
| 20260506193009 | 47 | 338 | 5.0 | 10.0 | 0.00 | 0.00 | 0.00 | 33 | 1012.3 |
| 20260506191510 | 48 | 329 | 3.0 | 8.0 | 0.00 | 0.00 | 0.00 | 33 | 1012.1 |
| 20260506190002 | 48 | 328 | 5.0 | 8.0 | 0.00 | 0.00 | 0.00 | 36 | 1012.0 |
| 20260506184505 | 49 | 101 | 0.0 | 2.0 | 0.00 | 0.00 | 0.00 | 48 | 1011.8 |
| 20260506183009 | 48 | 101 | 0.0 | 2.0 | 0.00 | 0.00 | 0.00 | 53 | 1011.8 |
| 20260506181516 | 48 | 101 | 2.0 | 6.0 | 0.00 | 0.00 | 0.00 | 55 | 1011.5 |
| 20260506180016 | 49 | 111 | 1.0 | 6.0 | 0.00 | 0.00 | 0.00 | 53 | 1011.3 |
| 20260506174510 | 48 | 145 | 4.0 | 11.0 | 0.00 | 0.00 | 0.00 | 55 | 1011.3 |
| 20260506173009 | 49 | 117 | 2.0 | 9.0 | 0.00 | 0.00 | 0.00 | 53 | 1011.3 |
| 20260506171509 | 50 | 129 | 5.0 | 12.0 | 0.00 | 0.00 | 0.00 | 45 | 1011.3 |
| 20260506170009 | 50 | 108 | 6.0 | 14.0 | 0.00 | 0.00 | 0.00 | 46 | 1011.3 |
| 20260506164511 | 51 | 138 | 6.0 | 11.0 | 0.00 | 0.00 | 0.00 | 40 | 1011.3 |
| 20260506163010 | 51 | 167 | 7.0 | 12.0 | 0.00 | 0.00 | 0.00 | 39 | 1011.4 |
| 20260506161511 | 51 | 173 | 8.0 | 11.0 | 0.00 | 0.00 | 0.00 | 36 | 1011.3 |
| 20260506154509 | 50 | 170 | 4.0 | 15.0 | 0.00 | 0.00 | 0.00 | 34 | 1011.4 |
| 20260506153009 | 51 | 187 | 8.0 | 13.0 | 0.00 | 0.00 | 0.00 | 33 | 1011.5 |
| 20260506150010 | 50 | 166 | 9.0 | 20.0 | 0.00 | 0.00 | 0.00 | 33 | 1011.6 |
| 20260506144510 | 49 | 177 | 8.0 | 15.0 | 0.00 | 0.00 | 0.00 | 35 | 1011.6 |
| 20260506143010 | 50 | 161 | 9.0 | 15.0 | 0.00 | 0.00 | 0.00 | 32 | 1011.7 |
| 20260506141509 | 50 | 170 | 10.0 | 14.0 | 0.00 | 0.00 | 0.00 | 31 | 1011.7 |
| 20260506140010 | 50 | 208 | 8.0 | 16.0 | 0.00 | 0.00 | 0.00 | 31 | 1011.8 |
| 20260506134509 | 50 | 197 | 10.0 | 15.0 | 0.00 | 0.00 | 0.00 | 32 | 1011.9 |
| 20260506133013 | 50 | 180 | 5.0 | 15.0 | 0.00 | 0.00 | 0.00 | 32 | 1011.9 |
| 20260506131516 | 49 | 180 | 8.0 | 17.0 | 0.00 | 0.00 | 0.00 | 34 | 1011.9 |
| 20260506130015 | 49 | 216 | 7.0 | 15.0 | 0.00 | 0.00 | 0.00 | 35 | 1012.0 |
| 20260506124509 | 49 | 205 | 9.0 | 20.0 | 0.00 | 0.00 | 0.00 | 37 | 1012.0 |
| 20260506123009 | 49 | 206 | 9.0 | 16.0 | 0.00 | 0.00 | 0.00 | 37 | 1012.1 |
| 20260506121510 | 48 | 148 | 11.0 | 17.0 | 0.00 | 0.00 | 0.00 | 35 | 1012.1 |
| 20260506120010 | 48 | 201 | 10.0 | 16.0 | 0.00 | 0.00 | 0.00 | 34 | 1012.2 |
| 20260506114511 | 49 | 167 | 7.0 | 15.0 | 0.00 | 0.00 | 0.00 | 33 | 1012.3 |
| 20260506113010 | 48 | 125 | 9.0 | 17.0 | 0.00 | 0.00 | 0.00 | 32 | 1012.2 |
| 20260506111510 | 48 | 150 | 9.0 | 16.0 | 0.00 | 0.00 | 0.00 | 32 | 1012.2 |
| 20260506110010 | 49 | 184 | 8.0 | 15.0 | 0.00 | 0.00 | 0.00 | 29 | 1012.3 |
| 20260506104511 | 51 | 169 | 8.0 | 13.0 | 0.00 | 0.00 | 0.00 | 28 | 1012.2 |
| 20260506103023 | 54 | 44 | 0.0 | 12.0 | 0.00 | 0.00 | 0.00 | 16 | 1012.2 |
| 20260506101511 | 55 | 348 | 4.0 | 11.0 | 0.00 | 0.00 | 0.00 | 17 | 1012.3 |
| 20260506100010 | 55 | 348 | 0.0 | 8.0 | 0.00 | 0.00 | 0.00 | 15 | 1012.5 |
| 20260506094525 | 52 | 19 | 4.0 | 11.0 | 0.00 | 0.00 | 0.00 | 18 | 1012.4 |
| 20260506093009 | 54 | 31 | 3.0 | 9.0 | 0.00 | 0.00 | 0.00 | 20 | 1012.5 |
| 20260506091509 | 53 | 74 | 3.0 | 6.0 | 0.00 | 0.00 | 0.00 | 20 | 1012.6 |
| 20260506090009 | 52 | 76 | 0.0 | 4.0 | 0.00 | 0.00 | 0.00 | 24 | 1012.7 |
| 20260506084510 | 52 | 14 | 1.0 | 8.0 | 0.00 | 0.00 | 0.00 | 25 | 1012.6 |
| 20260506083010 | 49 | 76 | 3.0 | 6.0 | 0.00 | 0.00 | 0.00 | 28 | 1012.8 |
| 20260506081510 | 49 | 73 | 2.0 | 8.0 | 0.00 | 0.00 | 0.00 | 28 | 1012.8 |
| 20260506073009 | 49 | 30 | 1.0 | 6.0 | 0.00 | 0.00 | 0.00 | 31 | 1012.8 |
| 20260506071510 | 46 | 27 | 2.0 | 9.0 | 0.00 | 0.00 | 0.00 | 39 | 1012.8 |
| 20260506061510 | 41 | 19 | 4.0 | 9.0 | 0.00 | 0.00 | 0.00 | 49 | 1012.8 |
| 20260506044517 | 31 | 16 | 5.0 | 8.0 | 0.00 | 0.00 | 0.00 | 73 | 1013.1 |
| 20260506043014 | 30 | 355 | 3.0 | 8.0 | 0.00 | 0.00 | 0.00 | 75 | 1013.1 |
| 20260506041510 | 30 | 350 | 4.0 | 6.0 | 0.00 | 0.00 | 0.00 | 76 | 1013.1 |
| 20260506040009 | 29 | 350 | 3.0 | 6.0 | 0.00 | 0.00 | 0.00 | 78 | 1013.0 |
| 20260506034510 | 29 | 348 | 4.0 | 8.0 | 0.00 | 0.00 | 0.00 | 78 | 1012.9 |
| 20260506033009 | 29 | 350 | 3.0 | 6.0 | 0.00 | 0.00 | 0.00 | 79 | 1012.9 |
| 20260506031514 | 29 | 351 | 4.0 | 8.0 | 0.00 | 0.00 | 0.00 | 78 | 1012.7 |
| 20260506030010 | 29 | 355 | 4.0 | 8.0 | 0.00 | 0.00 | 0.00 | 77 | 1012.7 |
| 20260506024510 | 29 | 355 | 4.0 | 6.0 | 0.00 | 0.00 | 0.00 | 77 | 1012.7 |